Location: Jackson Park
(37.2862°N, 79.9123°W)
Time: 13:55:14
(UTC+00:00)

Transit 2A Rocket - All Passes

Search period start: 13 May 2026 00:00
Search period end: 23 May 2026 00:00
Orbit: 587 x 895 km, 66.7° (Epoch: 13 May)

Date Brightness Start Highest point End Pass type
(mag) Time Alt. Az. Time Alt. Az. Time Alt. Az.
13 May - 00:41:49 10° SSW 00:47:37 74° WNW 00:53:01 10° NNE visible
13 May - 02:28:40 10° WNW 02:30:45 12° NW 02:32:46 10° NNW visible
13 May - 09:27:16 10° NNW 09:31:37 46° ENE 09:35:45 10° SE visible
13 May - 11:11:11 10° WNW 11:13:23 14° WSW 11:15:33 10° SW daylight
13 May - 23:56:12 10° SSW 00:01:55 61° ESE 00:07:15 10° NE daylight
14 May - 01:40:27 10° W 01:44:36 20° NW 01:48:32 10° N visible
14 May - 08:42:02 10° N 08:45:42 24° NE 08:49:12 10° ESE visible
14 May - 10:24:09 10° NW 10:27:59 29° WSW 10:31:41 10° S daylight
14 May - 23:11:13 10° S 23:16:18 32° ESE 23:21:07 10° NE daylight
15 May - 00:53:25 10° WSW 00:58:36 35° NW 01:03:29 10° N visible
15 May - 07:57:28 10° NNE 07:59:36 13° NE 08:01:39 10° ENE visible
15 May - 09:38:01 10° NNW 09:42:26 65° WSW 09:46:39 10° SSE visible
15 May - 22:27:11 10° SE 22:30:49 17° ESE 22:34:18 10° ENE daylight
16 May - 00:07:03 10° SW 00:12:46 63° WNW 00:18:05 10° NNE daylight
16 May - 01:55:45 10° NW 01:56:02 10° NW 01:56:19 10° NW visible
16 May - 08:52:19 10° NNW 08:56:44 57° ENE 09:00:56 10° SE visible
16 May - 10:37:21 10° W 10:38:23 11° WSW 10:39:24 10° WSW daylight
16 May - 23:21:16 10° SSW 23:27:01 72° ESE 23:32:23 10° NNE daylight
17 May - 01:06:09 10° W 01:09:50 18° NW 01:13:20 10° N visible
17 May - 08:06:59 10° N 08:10:51 28° NE 08:14:35 10° ESE visible
17 May - 09:49:29 10° NW 09:53:00 24° WSW 09:56:24 10° SSW daylight
17 May - 22:36:06 10° S 22:41:24 38° ESE 22:46:23 10° NE daylight
18 May - 00:18:53 10° WSW 00:23:47 30° NW 00:28:25 10° N daylight
18 May - 07:22:09 10° N 07:24:49 15° NE 07:27:24 10° E visible
18 May - 09:03:12 10° NW 09:07:30 52° WSW 09:11:37 10° S visible
18 May - 21:51:45 10° SSE 21:55:52 21° ESE 21:59:49 10° ENE daylight
18 May - 23:32:20 10° SW 23:37:55 53° WNW 23:43:06 10° NNE daylight
19 May - 08:17:23 10° NNW 08:21:50 71° ENE 08:26:05 10° SE visible
19 May - 22:46:23 10° SSW 22:52:09 85° ESE 22:57:30 10° NNE daylight
20 May - 00:31:58 10° W 00:35:04 15° NW 00:38:02 10° NNW daylight
20 May - 07:31:57 10° N 07:36:01 34° NE 07:39:54 10° ESE visible
20 May - 09:14:55 10° WNW 09:18:01 19° WSW 09:21:02 10° SSW visible
20 May - 22:01:01 10° S 22:06:29 46° ESE 22:11:36 10° NE daylight
20 May - 23:44:23 10° WSW 23:48:59 25° NW 23:53:20 10° N daylight
21 May - 06:46:56 10° N 06:50:01 18° NE 06:53:00 10° E visible
21 May - 08:28:24 10° NW 08:32:32 41° WSW 08:36:32 10° S visible
21 May - 21:16:24 10° SSE 21:20:56 24° ESE 21:25:14 10° NE daylight
21 May - 22:57:39 10° SW 23:03:04 44° WNW 23:08:07 10° NNE daylight
22 May - 07:42:29 10° NNW 07:46:55 88° ENE 07:51:10 10° SSE visible
22 May - 20:33:13 10° SE 20:35:28 12° ESE 20:37:40 10° E daylight
22 May - 22:11:32 10° SSW 22:17:16 81° WNW 22:22:36 10° NNE daylight
